Precipitable_Water
1.00 1.08 1.21 1.25 1.19 1.10 0.95 0.89 0.93 0.90 0.93 0.91 0.93 0.95 0.97 0.97 0.97 1.00 0.99 0.98 0.97 0.95
1.17 1.19 1.19 1.35 1.42 1.37 1.35 1.21 1.06 1.05 0.99 1.06 1.11 1.12 1.14 1.11 1.07 1.08 1.03 0.99 0.98 0.96
1.34 1.36 1.37 1.43 1.49 1.53 1.58 1.56 1.44 1.24 1.20 1.24 1.28 1.30 1.27 1.20 1.15 1.10 1.12 1.12 1.11 1.09
1.47 1.50 1.52 1.54 1.59 1.64 1.59 1.82 1.71 1.64 1.53 1.46 1.45 1.43 1.37 1.32 1.30 1.24 1.20 1.24 1.19 1.13
1.31 1.53 1.61 1.59 1.65 1.71 1.73 1.87 1.90 1.66 1.61 1.67 1.69 1.63 1.50 1.44 1.39 1.29 1.25 1.17 1.10 1.03
0.99 1.11 1.28 1.44 1.56 1.63 1.60 1.62 1.76 1.79 1.54 1.47 1.57 1.58 1.54 1.55 1.41 1.30 1.21 1.20 1.12 1.07
0.87 0.91 0.91 0.92 0.96 1.05 1.23 1.36 1.45 1.52 1.39 1.41 1.43 1.51 1.49 1.46 1.34 1.22 1.16 1.14 1.12 1.20
0.78 0.81 0.84 0.85 0.83 0.83 0.82 0.85 0.98 1.19 1.40 1.47 1.42 1.35 1.38 1.40 1.29 1.21 1.17 1.18 1.16 1.21
0.71 0.73 0.76 0.79 0.79 0.80 0.83 0.81 0.84 0.86 0.87 0.82 0.90 1.04 1.10 1.09 1.00 0.97 0.99 1.04 1.15 1.27
0.69 0.70 0.71 0.74 0.76 0.75 0.73 0.78 0.79 0.79 0.82 0.80 0.75 0.75 0.77 0.84 0.87 0.87 0.91 0.94 1.00 1.06
0.62 0.63 0.64 0.67 0.70 0.74 0.75 0.71 0.74 0.77 0.83 0.83 0.84 0.78 0.76 0.78 0.81 0.81 0.82 0.83 0.86 0.91
0.49 0.52 0.55 0.56 0.58 0.66 0.69 0.75 0.73 0.71 0.74 0.77 0.82 0.85 0.80 0.76 0.73 0.71 0.71 0.73 0.74 0.73
0.40 0.42 0.43 0.47 0.50 0.53 0.58 0.61 0.65 0.66 0.67 0.67 0.69 0.76 0.83 0.78 0.70 0.62 0.59 0.61 0.65 0.67
0.35 0.36 0.39 0.40 0.42 0.44 0.46 0.47 0.49 0.55 0.59 0.59 0.59 0.61 0.71 0.77 0.72 0.65 0.59 0.55 0.52 0.56
Wind_Speed
51 49 49 48 45 43 43 42 42 43 44 43 42 41 40 40 39 39 38 38 37 37
50 50 49 50 49 48 47 45 43 44 45 45 46 45 44 43 41 40 39 39 39 39
46 48 49 50 52 53 51 50 48 46 45 45 45 45 44 43 41 41 41 41 41 41
41 44 46 48 50 51 53 54 52 49 46 47 45 44 44 44 43 42 42 42 43 43
30 35 40 43 45 47 50 56 56 55 52 46 45 46 45 45 45 44 44 45 45 45
22 24 25 28 33 37 41 47 34 48 49 47 47 49 45 45 45 44 45 45 46 45
21 23 25 27 29 32 35 39 41 43 45 52 53 47 46 46 45 44 45 46 47 47
28 28 27 29 30 30 30 32 33 35 32 36 37 39 43 41 43 43 44 46 46 46
31 31 34 34 34 36 36 34 34 34 36 36 38 39 41 41 39 41 42 43 43 43
35 36 36 37 39 40 40 40 40 40 40 39 39 40 41 42 42 41 41 42 41 41
41 41 40 41 42 43 43 43 43 43 43 44 43 43 43 44 44 43 43 43 42 43
42 45 45 46 47 47 48 49 48 47 47 48 48 47 45 44 44 43 44 45 45 46
45 48 50 51 50 51 52 52 52 53 51 50 48 45 46 46 47 48 47 47 48 48
45 48 50 51 52 53 54 56 55 56 56 56 54 54 52 52 51 50 50 51 50 50
Wind_Direction
240 240 240 240 240 239 240 242 242 242 243 244 245 246 248 251 253 255 257 259 262 265
240 240 241 241 242 242 242 243 243 244 244 245 247 248 249 251 253 255 257 260 263 265
241 241 242 242 242 243 243 243 244 243 244 244 246 247 248 249 252 254 258 262 264 265
242 241 242 243 243 247 245 242 242 240 242 244 244 246 247 249 251 254 258 262 264 266
246 246 245 245 246 247 246 246 245 241 241 243 247 249 249 250 252 255 258 263 265 267
247 246 245 244 243 246 247 246 257 245 244 246 247 260 249 252 253 256 259 263 265 268
254 252 251 249 250 251 252 253 255 258 257 252 253 254 253 254 255 258 260 264 266 268
259 257 257 256 255 255 256 258 258 259 256 251 255 253 255 255 257 260 263 265 266 267
263 262 260 260 259 257 257 259 259 258 257 260 257 257 258 258 261 261 265 265 266 266
265 263 263 262 260 260 260 260 261 261 260 259 260 260 261 261 264 264 264 264 265 267
268 267 265 264 262 261 261 262 262 262 261 261 262 264 264 265 264 265 264 265 266 268
269 268 266 265 265 263 262 260 261 262 263 263 262 265 265 264 265 264 265 266 268 272
274 271 268 267 265 263 262 262 261 262 262 262 262 262 262 265 267 267 267 269 270 272
279 274 271 268 266 264 264 263 262 261 261 262 262 263 264 263 265 266 267 270 271 272